GPS BIIF-12 (PRN 32)

Last updated on Thu Oct 23 2025 00:03:26 GMT+0000 (Coordinated Universal Time)

1 41328U 16007A 25295.03984514 .00000020 00000+0 00000+0 0 9999 2 41328 55.3752 98.9083 0089780 242.6411 116.4558 2.00563440 71064
UTC large
Height (km)
Speed (km/s)
/
Latitude / Longitude
Inclination (degrees)
Orbital Period (minutes)
Azimuth
Elevation
Range (km)
Doppler Factor

Next 0 passes for location: London (51.5072 / 0.1276)

Sorry there are no passes over London.